[[{"header":{"parameterUnit":"m.s-1","parameterCategory":1,"la1":30.2991,"la2":30.254,"lo1":-89.0895,"lo2":-89.0444,"dy":0.0017,"dx":0.0017,"nx":28,"ny":28,"refTime":"2024-07-29T03:00:00:Z","depth":0,"parameterNumber":2,"parameterNumberName":"U-component_of_WINDS"},"data":[0,0,0,0,0,0,0,0,0,0,0,0,0,0,0,0,0,0,0,0,0,0,0,0,0,0,0,0,0,0,0,0,0,0,0,0,0,0,0,0,0,0,0,0,0,0,0,0,0,0,0,0,0,0,0,0,0,0,2.4742,2.4743,0,2.4823,2.4823,2.4824,2.483,2.4829,2.4829,2.4828,2.4913,2.4916,2.4919,0,0,0,0,0,0,0,0,0,0,0,0,0,2.4597,2.46,2.4742,2.4743,2.4744,2.4822,2.4823,2.4825,2.483,2.4829,2.4828,2.4827,2.4912,2.4915,2.4919,0,0,0,0,0,0,0,0,0,0,0,0,0,2.4667,2.4601,2.4742,2.4756,2.4759,2.4822,2.4824,2.4825,2.4831,2.4829,2.4828,2.4827,2.491,2.4915,2.4919,2.4975,0,0,2.4934,2.4936,0,0,0,0,0,0,0,0,2.4663,2.4672,2.4753,2.4756,2.4758,2.4815,2.4803,2.4875,2.4831,2.4803,2.4828,2.4826,2.4881,2.4888,2.4906,2.4979,2.4983,2.4934,2.4937,2.4939,2.494,0,0,0,0,0,0,0,2.4658,2.4669,2.4774,2.4754,2.4757,2.476,2.4768,2.4817,2.4849,2.4806,2.4806,2.4816,2.4882,2.4902,2.4908,2.4984,2.4934,2.4938,2.4941,2.4943,2.5108,2.5109,0,0,0,0,0,0,2.465,2.4665,2.4771,2.4776,2.4706,2.4764,2.4773,2.4798,2.4848,2.4855,2.4817,2.4816,2.4895,2.4903,2.4911,2.4981,2.4939,2.4943,2.4946,2.5106,2.5108,2.511,0,0,0,0,0,0,2.4647,2.466,2.4768,2.4721,2.4735,2.4768,2.4796,2.48,2.482,2.4857,2.4863,2.4831,2.4894,2.4905,2.4959,2.4984,2.4945,2.4949,2.5104,2.5107,2.5109,2.512,0,0,0,0,0,0,2.4643,2.4658,2.4679,2.4721,2.4737,2.4814,2.4797,2.4803,2.4828,2.4827,2.4871,2.4877,2.4894,2.4952,2.4964,2.499,2.4953,2.5102,2.5106,2.5108,2.5117,2.5122,2.5126,0,0,0,0,0,2.4638,2.4679,2.468,2.4693,2.4764,2.4815,2.4824,2.4842,2.4829,2.4851,2.4875,2.4876,2.4979,2.4958,2.4971,2.4999,2.5101,2.5105,2.5108,2.5115,2.5121,2.5126,0,0,0,0,0,0,2.4639,2.4685,2.4686,2.4742,2.4775,2.4816,2.4844,2.4847,2.4884,2.4882,2.4903,2.4913,2.4967,2.4988,2.4963,2.5056,2.5039,2.5045,2.504,2.5046,2.505,2.5045,2.4957,0,0,0,0,0,2.4646,2.4683,2.4721,2.4767,2.4783,2.4811,2.4834,2.4844,2.4879,2.4893,2.4921,2.4955,2.4996,2.5022,2.5061,2.512,2.5131,2.5146,2.515,2.5154,2.516,2.5194,2.5202,2.5122,2.5122,2.5122,0,0,2.4661,2.469,2.4712,2.4768,2.4795,2.4834,2.4822,2.4864,2.4894,2.49,2.4953,2.4974,2.5014,2.5072,2.5099,2.5091,2.5184,2.5159,2.5161,2.5165,2.5199,2.5206,2.5213,2.5124,2.5124,2.5123,0,0,2.4708,2.4733,2.4775,2.4801,2.4841,2.4859,2.4869,2.491,2.4925,2.4978,2.4984,2.502,2.5089,2.5118,2.5141,2.5201,2.5204,2.5213,2.5237,2.527,2.5277,2.5282,2.5305,2.5313,2.5218,2.5218,2.5218,0,2.4721,2.478,2.4796,2.4838,2.4863,2.4869,2.4913,2.4938,2.4989,2.5007,2.4998,2.5085,2.5112,2.5177,2.5192,2.521,2.5224,2.5208,2.5274,2.528,2.5286,2.5308,2.5316,2.5219,2.5219,2.5219,2.5219,0,2.4795,2.4836,2.4865,2.4913,2.4942,2.4984,2.5008,2.5035,2.5043,2.5063,2.5118,2.5151,2.5198,2.5214,2.5222,2.5281,2.5275,2.527,2.5253,2.5294,2.5315,2.5323,2.522,2.522,2.522,2.5219,0,0,2.4846,2.4903,2.4914,2.4936,2.4981,2.5013,2.5057,2.5102,2.5125,2.516,2.5198,2.5257,2.5252,2.5279,2.5291,2.532,2.5367,2.5312,2.5313,2.5322,2.5436,2.544,2.5449,2.5369,2.5371,2.5372,2.5433,0,2.4899,2.4975,2.4991,2.5058,2.5097,2.5104,2.5142,2.5174,2.5194,2.523,2.5252,2.5294,2.5284,2.5301,2.533,2.5355,2.539,2.5351,2.5406,2.5408,2.5397,2.546,2.5465,2.5521,2.5441,2.5442,2.5443,0,2.4971,2.5007,2.5077,2.5118,2.5135,2.5169,2.5212,2.5246,2.5284,2.5296,2.5327,2.5336,2.5383,2.5363,2.5429,2.5402,2.5426,2.5442,2.5444,2.5451,2.5429,2.547,2.5539,2.5548,2.5456,2.5455,2.5454,0,2.5002,2.5069,2.512,2.5139,2.5188,2.5212,2.5233,2.5269,2.5296,2.5334,2.5351,2.5395,2.5419,2.5453,2.5474,2.5458,2.5539,2.5521,2.5552,2.5551,2.5569,2.5568,2.5644,2.5582,2.5582,2.5582,2.5582,0,2.5061,2.5104,2.5135,2.5167,2.5216,2.5235,2.5283,2.5305,2.5337,2.5374,2.5383,2.5417,2.5442,2.5481,2.5498,2.5551,2.5561,2.5574,2.5578,2.5574,2.5572,2.559,2.5588,2.5584,2.5584,2.5583,2.5583,0,2.5105,2.5127,2.5184,2.5225,2.5236,2.5271,2.5307,2.5339,2.5358,2.5405,2.5417,2.5449,2.5495,2.5519,2.5577,2.5588,2.5648,2.5649,2.5635,2.5637,2.5667,2.5665,2.5759,2.5773,2.57,2.5701,2.5702,0,2.5141,2.5174,2.5219,2.5244,2.5266,2.5306,2.5333,2.5354,2.5382,2.5427,2.5454,2.55,2.5538,2.5612,2.5641,2.5686,2.5689,2.5719,2.5696,2.5691,2.5691,2.5689,2.5694,2.5723,2.5724,2.5724,2.5725,0,2.5204,2.5213,2.5251,2.5294,2.5326,2.536,2.5394,2.5415,2.5441,2.5472,2.5519,2.5548,2.5607,2.5654,2.5701,2.5724,2.573,2.5732,2.5742,2.5738,2.5729,2.5736,2.5648,2.573,2.5729,2.5729,2.5729,2.5728,2.5246,2.5277,2.5313,2.5356,2.5383,2.5415,2.5447,2.5471,2.551,2.5559,2.5569,2.5619,2.5657,2.5721,2.5746,2.5786,2.578,2.5794,2.5798,2.5801,2.5803,2.5722,2.5795,2.5795,2.5795,2.5795,2.5794,0,2.5311,2.5334,2.5373,2.5421,2.5455,2.5455,2.5493,2.5522,2.5566,2.56,2.5638,2.5692,2.5738,2.577,2.5817,2.5843,2.5847,2.5855,2.5854,2.586,2.5805,2.5793,2.5851,2.5851,2.5851,2.5851,2.5851,2.5851,2.5348,2.54,2.5414,2.5481,2.5505,2.5553,2.5575,2.5605,2.5633,2.5693,2.5731,2.5751,2.5786,2.5835,2.5877,2.5886,2.5903,2.5911,2.592,2.5869,2.5863,2.5858,2.5846,2.5915,2.5915,2.5972,2.5972,2.5972]},{"header":{"parameterUnit":"m.s-1","parameterCategory":1,"la1":30.2991,"la2":30.254,"lo1":-89.0895,"lo2":-89.0444,"dy":0.0017,"dx":0.0017,"nx":28,"ny":28,"refTime":"2024-07-29T03:00:00:Z","depth":0,"parameterNumber":3,"parameterNumberName":"V-component_of_WINDS"},"data":[0,0,0,0,0,0,0,0,0,0,0,0,0,0,0,0,0,0,0,0,0,0,0,0,0,0,0,0,0,0,0,0,0,0,0,0,0,0,0,0,0,0,0,0,0,0,0,0,0,0,0,0,0,0,0,0,0,0,-0.2531,-0.2531,0,-0.254,-0.254,-0.254,-0.2537,-0.2537,-0.2537,-0.2537,-0.2545,-0.2545,-0.2545,0,0,0,0,0,0,0,0,0,0,0,0,0,-0.2511,-0.2511,-0.2531,-0.2531,-0.2531,-0.254,-0.254,-0.254,-0.2537,-0.2537,-0.2537,-0.2537,-0.2544,-0.2545,-0.2545,0,0,0,0,0,0,0,0,0,0,0,0,0,-0.252,-0.2511,-0.2531,-0.2531,-0.2531,-0.254,-0.254,-0.254,-0.2537,-0.2537,-0.2537,-0.2537,-0.2544,-0.2545,-0.2545,-0.2554,0,0,-0.2547,-0.2547,0,0,0,0,0,0,0,0,-0.2519,-0.252,-0.2531,-0.2531,-0.2531,-0.2537,-0.2536,-0.2545,-0.2537,-0.2535,-0.2537,-0.2536,-0.2542,-0.2543,-0.2545,-0.2555,-0.2555,-0.2547,-0.2548,-0.2548,-0.2548,0,0,0,0,0,0,0,-0.2519,-0.252,-0.2534,-0.2531,-0.2531,-0.253,-0.2531,-0.2538,-0.254,-0.2535,-0.2535,-0.2536,-0.2542,-0.2545,-0.2545,-0.2555,-0.2547,-0.2548,-0.2548,-0.2548,-0.2575,-0.2575,0,0,0,0,0,0,-0.2518,-0.252,-0.2534,-0.2535,-0.2524,-0.2531,-0.2532,-0.2535,-0.254,-0.254,-0.2536,-0.2536,-0.2544,-0.2545,-0.2546,-0.2558,-0.2548,-0.2548,-0.2549,-0.2575,-0.2575,-0.2576,0,0,0,0,0,0,-0.2518,-0.2519,-0.2534,-0.2527,-0.2529,-0.2531,-0.2535,-0.2536,-0.2538,-0.2541,-0.2541,-0.2538,-0.2544,-0.2545,-0.2553,-0.2558,-0.2549,-0.2549,-0.2574,-0.2575,-0.2575,-0.2582,0,0,0,0,0,0,-0.2517,-0.2519,-0.2522,-0.2527,-0.2529,-0.2541,-0.2536,-0.2536,-0.2539,-0.2539,-0.2543,-0.2543,-0.2544,-0.2552,-0.2553,-0.2559,-0.2549,-0.2574,-0.2575,-0.2575,-0.2581,-0.2583,-0.2584,0,0,0,0,0,-0.2516,-0.2523,-0.2523,-0.2524,-0.2533,-0.2541,-0.2542,-0.2543,-0.254,-0.2543,-0.2545,-0.2543,-0.2557,-0.2553,-0.2554,-0.256,-0.2573,-0.2574,-0.2575,-0.2581,-0.2582,-0.2584,0,0,0,0,0,0,-0.2518,-0.2524,-0.2523,-0.2532,-0.2536,-0.254,-0.2545,-0.2544,-0.2549,-0.2548,-0.2548,-0.2549,-0.2558,-0.256,-0.2555,-0.257,-0.2565,-0.2566,-0.2569,-0.257,-0.2572,-0.2571,-0.255,0,0,0,0,0,-0.2519,-0.2525,-0.253,-0.2537,-0.2539,-0.2542,-0.2545,-0.2545,-0.255,-0.2551,-0.2554,-0.2558,-0.2563,-0.2567,-0.2572,-0.2582,-0.2583,-0.2586,-0.2588,-0.2589,-0.259,-0.2597,-0.2599,-0.2578,-0.2578,-0.2578,0,0,-0.2522,-0.2526,-0.2529,-0.2537,-0.2541,-0.2547,-0.2543,-0.2549,-0.2554,-0.2552,-0.256,-0.2563,-0.2567,-0.2576,-0.2581,-0.2578,-0.2596,-0.259,-0.2591,-0.2591,-0.2598,-0.26,-0.2601,-0.2579,-0.2579,-0.2579,0,0,-0.253,-0.2534,-0.2541,-0.2545,-0.2551,-0.2553,-0.2554,-0.256,-0.2561,-0.257,-0.2569,-0.2575,-0.2584,-0.2588,-0.2591,-0.2603,-0.2602,-0.2605,-0.2612,-0.2619,-0.262,-0.2622,-0.2627,-0.2629,-0.2606,-0.2606,-0.2606,0,-0.2533,-0.2542,-0.2544,-0.2551,-0.2556,-0.2555,-0.2563,-0.2566,-0.2573,-0.2576,-0.2574,-0.2587,-0.2589,-0.2601,-0.2604,-0.2606,-0.2609,-0.2604,-0.262,-0.2621,-0.2623,-0.2628,-0.263,-0.2607,-0.2606,-0.2606,-0.2606,0,-0.2546,-0.2553,-0.2558,-0.2566,-0.2571,-0.2578,-0.2581,-0.2586,-0.2587,-0.2589,-0.2599,-0.2603,-0.2609,-0.2612,-0.2612,-0.2624,-0.2622,-0.262,-0.2615,-0.2625,-0.263,-0.2632,-0.2607,-0.2607,-0.2607,-0.2607,0,0,-0.2554,-0.2565,-0.2566,-0.2571,-0.2579,-0.2584,-0.2592,-0.26,-0.2604,-0.2609,-0.2617,-0.2626,-0.2624,-0.2628,-0.2628,-0.2634,-0.2646,-0.2631,-0.2631,-0.2635,-0.2661,-0.2663,-0.2665,-0.2645,-0.2646,-0.2646,-0.2661,0,-0.2563,-0.2578,-0.2581,-0.2593,-0.2601,-0.2602,-0.2609,-0.2614,-0.2618,-0.2624,-0.2627,-0.2634,-0.2631,-0.2634,-0.264,-0.2643,-0.2651,-0.2642,-0.2652,-0.2653,-0.2652,-0.2668,-0.267,-0.2684,-0.2663,-0.2663,-0.2663,0,-0.2576,-0.2583,-0.2597,-0.2606,-0.2609,-0.2615,-0.2624,-0.263,-0.2637,-0.2639,-0.2644,-0.2645,-0.2654,-0.2649,-0.2662,-0.2656,-0.266,-0.2663,-0.2664,-0.2665,-0.2659,-0.267,-0.2688,-0.269,-0.2666,-0.2666,-0.2666,0,-0.2581,-0.2595,-0.2605,-0.2609,-0.2619,-0.2624,-0.2628,-0.2635,-0.264,-0.2647,-0.2651,-0.2659,-0.2663,-0.267,-0.2673,-0.2669,-0.2686,-0.2681,-0.2689,-0.2689,-0.2692,-0.2692,-0.2712,-0.2694,-0.2694,-0.2694,-0.2694,0,-0.2592,-0.2601,-0.2608,-0.2615,-0.2625,-0.2629,-0.2639,-0.2643,-0.265,-0.2657,-0.2658,-0.2665,-0.2669,-0.2677,-0.2679,-0.2691,-0.2692,-0.2695,-0.2695,-0.2695,-0.2695,-0.2698,-0.2697,-0.2695,-0.2695,-0.2695,-0.2695,0,-0.2599,-0.2605,-0.2617,-0.2626,-0.2629,-0.2636,-0.2644,-0.2651,-0.2655,-0.2665,-0.2667,-0.2673,-0.2683,-0.2687,-0.2698,-0.27,-0.2713,-0.2713,-0.2711,-0.2712,-0.2719,-0.2719,-0.2742,-0.2746,-0.2726,-0.2726,-0.2726,0,-0.2606,-0.2613,-0.2624,-0.263,-0.2635,-0.2643,-0.2649,-0.2654,-0.266,-0.267,-0.2676,-0.2686,-0.2694,-0.271,-0.2715,-0.2724,-0.2724,-0.2732,-0.2726,-0.2726,-0.2726,-0.2725,-0.2727,-0.2733,-0.2733,-0.2733,-0.2733,0,-0.2617,-0.262,-0.2629,-0.2639,-0.2647,-0.2655,-0.2663,-0.2667,-0.2673,-0.268,-0.2691,-0.2698,-0.271,-0.2721,-0.2731,-0.2735,-0.2736,-0.2736,-0.2738,-0.2738,-0.2737,-0.2739,-0.2715,-0.2735,-0.2735,-0.2735,-0.2735,-0.2735,-0.2624,-0.2631,-0.2641,-0.2651,-0.2658,-0.2666,-0.2674,-0.268,-0.2689,-0.27,-0.2703,-0.2714,-0.2723,-0.2737,-0.2742,-0.2752,-0.275,-0.2753,-0.2754,-0.2755,-0.2756,-0.2736,-0.2753,-0.2753,-0.2753,-0.2753,-0.2753,0,-0.2636,-0.2643,-0.2653,-0.2665,-0.2674,-0.2674,-0.2684,-0.2691,-0.2702,-0.271,-0.2719,-0.2732,-0.2743,-0.275,-0.2761,-0.2767,-0.2768,-0.277,-0.277,-0.2771,-0.2756,-0.2754,-0.277,-0.277,-0.277,-0.277,-0.277,-0.277,-0.2643,-0.2656,-0.2661,-0.2677,-0.2684,-0.2696,-0.2702,-0.271,-0.2717,-0.2732,-0.2741,-0.2746,-0.2755,-0.2767,-0.2777,-0.2779,-0.2783,-0.2786,-0.2788,-0.2774,-0.2772,-0.277,-0.2768,-0.2786,-0.2786,-0.2802,-0.2802,-0.2802]}]]